Starlink 11618

operational
NORAD ID: 63185 Int'l Des: 2025-048 Owner: SPXS Country: US Constellation: starlink
LEOCIRCULAR

Über Starlink 11618

Beschreibung wird geladen...

Live-Position

3D-Globus wird geladen...

Nächste Überflüge

Höhenverlauf

Altitude vs Time

uPlot chart will show altitude changes over time

Zweizeiliger Elementsatz

1 63185U 25048C 26095.52260796 .00166535 00000-0 12735-2 0 9997
2 63185 42.9991 157.9468 0001787 286.9813 73.0859 15.70876394 62739
Epoch: 5. Apr. 2026 • Age: 6 hours

Aktueller Status

Höhe 357.3 km
Geschwindigkeit 7.70 km/s
Subsatellitenpunkt -11.13°S, 31.59°E
Startdatum 13. März 2025
Alter 1 years
Typ internet

Technische Details

Klassifizierung Payload
Masse 960.00 kg
Trockenmasse 910.00 kg
Gesamtmasse 960.00 kg
Länge 0.30 m
Durchmesser 4.10 m
Spannweite 29.00 m
Form Box + pan
Hersteller SPXS
Bus-Typ Starlink V2MD
Phasenstatus In Orbit
Besitzer/Staat SPXS/US

Große Konstellationen

Loading constellations...